When you browse on this site, cookies collect data to enhance your experience and personalize the content and advertising you see.
Visit our Privacy Policy to learn more. By continuing to use the site, you agree to this use of cookies and data.
  • In Lithuania
  • List of Countries
  • For 7 days
  • Water Temperature
  • Weather Map
  • Weather Widgets
  • user-avatar
    Login

    Hourly Weather Vilnius

    Today, 26 February, Wednesday

    Time Temperature Precipitation Wind Pressure Humidity
    00:00 +3°C° 0.6 mm 2 mps 732 mmHg 97%
    01:00 +3°C° 0.6 mm 2 mps 731 mmHg 97%
    02:00 +2°C° 0 mm 2 mps 731 mmHg 96%
    03:00 +2°C° 0 mm 2 mps 731 mmHg 97%
    04:00 +2°C° 0 mm 2 mps 731 mmHg 97%
    05:00 +2°C° 0 mm 2 mps 731 mmHg 98%
    06:00 +2°C° 0 mm 2 mps 731 mmHg 96%
    07:00 +1°C° 0 mm 2 mps 731 mmHg 95%
    08:00 +1°C° 0 mm 2 mps 731 mmHg 94%
    09:00 +1°C° 0 mm 3 mps 731 mmHg 85%
    10:00 +3°C° 0 mm 4 mps 731 mmHg 77%
    11:00 +4°C° 0 mm 4 mps 732 mmHg 68%
    12:00 +5°C° 0 mm 4 mps 731 mmHg 65%
    13:00 +5°C° 0 mm 4 mps 731 mmHg 61%
    14:00 +6°C° 0 mm 4 mps 731 mmHg 58%
    15:00 +5°C° 0 mm 3 mps 731 mmHg 62%
    16:00 +5°C° 0 mm 3 mps 731 mmHg 65%
    17:00 +5°C° 0 mm 2 mps 731 mmHg 69%
    18:00 +5°C° 0 mm 2 mps 731 mmHg 73%
    19:00 +4°C° 0 mm 2 mps 731 mmHg 77%
    20:00 +4°C° 0 mm 2 mps 731 mmHg 81%
    21:00 +3°C° 0.5 mm 2 mps 731 mmHg 85%
    22:00 +3°C° 0.5 mm 2 mps 731 mmHg 89%
    23:00 +4°C° 0.5 mm 1 mps 731 mmHg 93%

    Tomorrow, 27 February, Thursday

    Time Temperature Precipitation Wind Pressure Humidity
    00:00 +4°C° 1.2 mm 1 mps 731 mmHg 94%
    01:00 +3°C° 1.2 mm 1 mps 731 mmHg 95%
    02:00 +2°C° 1.2 mm 2 mps 731 mmHg 96%
    03:00 +2°C° 0.1 mm 2 mps 731 mmHg 94%
    04:00 +2°C° 0.1 mm 2 mps 731 mmHg 92%
    05:00 +1°C° 0.1 mm 2 mps 731 mmHg 90%
    06:00 +1°C° 0 mm 2 mps 732 mmHg 90%
    07:00 +1°C° 0 mm 2 mps 732 mmHg 91%
    08:00 -1°C° 0 mm 2 mps 732 mmHg 91%
    09:00 0°C° 0.1 mm 3 mps 732 mmHg 88%
    10:00 0°C° 0.1 mm 3 mps 733 mmHg 85%
    11:00 0°C° 0.1 mm 4 mps 733 mmHg 82%
    12:00 0°C° 0.1 mm 4 mps 733 mmHg 80%
    13:00 0°C° 0.1 mm 5 mps 733 mmHg 77%
    14:00 0°C° 0.1 mm 5 mps 733 mmHg 74%
    15:00 0°C° 0.1 mm 5 mps 733 mmHg 77%
    16:00 -1°C° 0.1 mm 5 mps 733 mmHg 80%
    17:00 -1°C° 0.1 mm 5 mps 733 mmHg 83%
    18:00 -2°C° 0 mm 5 mps 734 mmHg 82%
    19:00 -2°C° 0 mm 5 mps 734 mmHg 80%
    20:00 -2°C° 0 mm 4 mps 734 mmHg 78%
    21:00 -3°C° 0 mm 4 mps 734 mmHg 76%
    22:00 -3°C° 0 mm 4 mps 734 mmHg 75%
    23:00 -3°C° 0 mm 4 mps 734 mmHg 73%

    Day after tomorrow, 28 February, Friday

    Time Temperature Precipitation Wind Pressure Humidity
    00:00 -4°C° 0 mm 5 mps 734 mmHg 74%
    01:00 -4°C° 0 mm 5 mps 734 mmHg 74%
    02:00 -4°C° 0 mm 5 mps 734 mmHg 75%
    03:00 -4°C° 0 mm 5 mps 734 mmHg 76%
    04:00 -4°C° 0 mm 5 mps 734 mmHg 78%
    05:00 -4°C° 0 mm 5 mps 735 mmHg 79%
    06:00 -4°C° 0 mm 5 mps 735 mmHg 79%
    07:00 -3°C° 0 mm 4 mps 735 mmHg 79%
    08:00 -3°C° 0 mm 4 mps 735 mmHg 79%
    09:00 -2°C° 0 mm 4 mps 736 mmHg 76%
    10:00 -1°C° 0 mm 4 mps 736 mmHg 73%
    11:00 -1°C° 0 mm 5 mps 737 mmHg 69%
    12:00 0°C° 0 mm 5 mps 737 mmHg 68%
    13:00 0°C° 0 mm 5 mps 738 mmHg 67%
    14:00 0°C° 0 mm 5 mps 738 mmHg 65%
    15:00 0°C° 0 mm 4 mps 738 mmHg 66%
    16:00 0°C° 0 mm 4 mps 739 mmHg 66%
    17:00 0°C° 0 mm 4 mps 739 mmHg 67%
    18:00 0°C° 0 mm 3 mps 739 mmHg 70%
    19:00 -1°C° 0 mm 3 mps 740 mmHg 74%
    20:00 -1°C° 0 mm 3 mps 740 mmHg 78%
    21:00 -2°C° 0 mm 2 mps 740 mmHg 81%
    22:00 -2°C° 0 mm 2 mps 741 mmHg 84%
    23:00 -2°C° 0 mm 2 mps 741 mmHg 87%

    29 February, Saturday

    Time Temperature Precipitation Wind Pressure Humidity
    00:00 -1°C° 0.1 mm 3 mps 741 mmHg 89%
    01:00 -2°C° 0.1 mm 4 mps 741 mmHg 92%
    02:00 -2°C° 0.1 mm 4 mps 741 mmHg 95%
    03:00 -2°C° 0.2 mm 5 mps 741 mmHg 93%
    04:00 -2°C° 0.2 mm 5 mps 741 mmHg 91%
    05:00 -2°C° 0.2 mm 5 mps 742 mmHg 89%
    06:00 -2°C° 0.1 mm 4 mps 742 mmHg 90%
    07:00 -3°C° 0.1 mm 4 mps 742 mmHg 90%
    08:00 -2°C° 0.1 mm 3 mps 743 mmHg 91%
    09:00 -1°C° 0 mm 3 mps 743 mmHg 86%
    10:00 -1°C° 0 mm 3 mps 743 mmHg 82%
    11:00 -1°C° 0 mm 2 mps 744 mmHg 77%
    12:00 +1°C° 0 mm 2 mps 744 mmHg 74%
    13:00 +1°C° 0 mm 2 mps 744 mmHg 72%
    14:00 +2°C° 0 mm 2 mps 744 mmHg 69%
    15:00 +2°C° 0 mm 2 mps 744 mmHg 71%
    16:00 +2°C° 0 mm 1 mps 744 mmHg 74%
    17:00 +2°C° 0 mm 1 mps 744 mmHg 76%
    18:00 +1°C° 0 mm 1 mps 745 mmHg 79%
    19:00 -1°C° 0 mm 2 mps 745 mmHg 83%
    20:00 -2°C° 0 mm 2 mps 745 mmHg 86%
    21:00 -2°C° 0 mm 2 mps 745 mmHg 86%
    22:00 -2°C° 0 mm 2 mps 745 mmHg 87%
    23:00 -2°C° 0 mm 3 mps 745 mmHg 87%

    1 March, Sunday

    Time Temperature Precipitation Wind Pressure Humidity
    00:00 -2°C° 0 mm 3 mps 745 mmHg 85%
    01:00 -3°C° 0 mm 4 mps 744 mmHg 83%
    02:00 -2°C° 0 mm 5 mps 744 mmHg 82%
    03:00 -2°C° 0 mm 5 mps 744 mmHg 80%
    04:00 -3°C° 0 mm 6 mps 743 mmHg 78%
    05:00 -2°C° 0 mm 6 mps 743 mmHg 76%
    06:00 -2°C° 0 mm 7 mps 742 mmHg 75%
    07:00 -2°C° 0 mm 7 mps 742 mmHg 74%
    08:00 -1°C° 0 mm 8 mps 741 mmHg 73%
    09:00 -1°C° 0 mm 8 mps 741 mmHg 69%
    10:00 0°C° 0 mm 8 mps 741 mmHg 65%
    11:00 +1°C° 0 mm 9 mps 741 mmHg 61%
    12:00 +1°C° 0 mm 8 mps 740 mmHg 64%
    13:00 +1°C° 0 mm 8 mps 740 mmHg 66%
    14:00 +2°C° 0 mm 7 mps 740 mmHg 69%
    15:00 0°C° 0.8 mm 7 mps 740 mmHg 78%
    16:00 0°C° 0.8 mm 7 mps 740 mmHg 87%
    17:00 -1°C° 0.8 mm 6 mps 740 mmHg 96%
    18:00 0°C° 0.3 mm 5 mps 740 mmHg 96%
    19:00 0°C° 0.3 mm 5 mps 740 mmHg 96%
    20:00 +1°C° 0.3 mm 4 mps 740 mmHg 96%
    21:00 +1°C° 0 mm 4 mps 740 mmHg 96%
    22:00 +2°C° 0 mm 3 mps 740 mmHg 95%
    23:00 +2°C° 0 mm 3 mps 740 mmHg 95%

    2 March, Monday

    Time Temperature Precipitation Wind Pressure Humidity
    00:00 +1°C° 0 mm 3 mps 740 mmHg 95%
    01:00 +1°C° 0 mm 3 mps 740 mmHg 95%
    02:00 +1°C° 0 mm 3 mps 740 mmHg 95%
    03:00 +1°C° 0 mm 3 mps 740 mmHg 96%
    04:00 +1°C° 0 mm 3 mps 740 mmHg 96%
    05:00 +1°C° 0 mm 3 mps 740 mmHg 96%
    06:00 +1°C° 0 mm 3 mps 740 mmHg 95%
    07:00 +1°C° 0 mm 3 mps 740 mmHg 94%
    08:00 0°C° 0 mm 4 mps 740 mmHg 92%
    09:00 +1°C° 0 mm 4 mps 740 mmHg 89%
    10:00 +3°C° 0 mm 4 mps 740 mmHg 86%
    11:00 +4°C° 0 mm 4 mps 740 mmHg 83%
    12:00 +4°C° 0.1 mm 4 mps 740 mmHg 78%
    13:00 +5°C° 0.1 mm 4 mps 740 mmHg 73%
    14:00 +6°C° 0.1 mm 4 mps 739 mmHg 68%
    15:00 +7°C° 0 mm 3 mps 739 mmHg 69%
    16:00 +5°C° 0 mm 3 mps 739 mmHg 69%
    17:00 +6°C° 0 mm 2 mps 739 mmHg 70%
    18:00 +5°C° 0.1 mm 2 mps 740 mmHg 74%
    19:00 +4°C° 0.1 mm 2 mps 740 mmHg 78%
    20:00 +3°C° 0.1 mm 2 mps 740 mmHg 82%
    21:00 +3°C° 0 mm 2 mps 741 mmHg 84%
    22:00 +2°C° 0 mm 2 mps 741 mmHg 85%
    23:00 +1°C° 0 mm 2 mps 741 mmHg 87%
    Show more